Date_and_time,latitude,longitude,wind_speed,RelWindDirFrom,WindDirFrom,air_pressure,air_temperature,relative_humidity,Temp,platform_speed_wrt_ground,air_pressure_at_mean_sea_level,platform_orientation
2019-06-08 00:00,52.817885,-97.61898,7.3,9.4,320,971.41,15.4,72,7.98,0.0,997.41,336.2
2019-06-08 00:10,52.8178816666667,-97.6189816666667,9.0,13.9,321,971.32,14.2,75,8.14,0.0,997.38,336.2
2019-06-08 00:20,52.8178783333333,-97.6189833333333,10.5,13.9,315,971.27,12.3,79,8.19,0.0,997.44,336.2
2019-06-08 00:30,52.81788,-97.6189833333333,9.0,11.1,319,971.14,11.8,81,8.26,0.0,997.24,336.2
2019-06-08 00:40,52.8178816666667,-97.6189883333333,9.1,11.6,317,970.98,12.0,82,8.20,0.0,997.00,336.2
2019-06-08 00:50,52.8178816666667,-97.618985,9.6,11.6,315,971.00,12.2,82,8.14,0.0,996.86,336.2
2019-06-08 01:00,52.8178866666667,-97.6189666666667,9.6,12.1,322,970.93,12.7,82,8.14,0.0,996.87,337.3
2019-06-08 01:10,52.817895,-97.618965,9.8,12.6,321,970.92,12.0,83,8.15,0.0,996.90,337.3
2019-06-08 01:20,52.8178883333333,-97.618965,8.8,11.3,324,970.94,11.5,86,8.17,0.0,996.95,337.3
2019-06-08 01:30,52.8178866666667,-97.618965,7.9,11.2,328,970.89,11.6,87,8.18,0.0,996.83,337.3
2019-06-08 01:40,52.8178766666667,-97.6189766666667,7.7,9.9,336,970.89,12.9,85,8.19,0.0,996.81,337.3
2019-06-08 01:50,52.817875,-97.61897,5.8,7.8,340,970.95,13.7,83,8.20,0.0,996.94,337.3
2019-06-08 02:00,52.8178733333333,-97.618965,7.9,11.3,324,970.91,13.4,83,8.20,0.0,996.96,344.9
2019-06-08 02:10,52.817875,-97.618965,8.8,11.3,319,970.93,12.7,85,8.19,0.0,997.09,344.9
2019-06-08 02:20,52.8178933333333,-97.61896,8.7,10.4,322,970.89,12.8,86,8.19,0.0,997.08,344.9
2019-06-08 02:30,52.8178916666667,-97.6189633333333,8.0,11.0,323,970.83,13.1,85,8.20,0.0,996.99,344.9
2019-06-08 02:40,52.8178883333333,-97.618965,6.5,8.8,338,970.98,13.4,85,8.21,0.0,997.12,344.9
2019-06-08 02:50,52.817885,-97.6189633333333,5.6,6.6,355,971.09,14.9,82,8.21,0.0,997.15,344.9
2019-06-08 03:00,52.8178833333333,-97.618965,6.3,8.0,334,971.21,14.7,82,8.22,0.0,997.31,90.0
2019-06-08 03:10,52.8178833333333,-97.618965,9.2,11.5,314,971.42,13.6,84,8.22,0.0,997.60,90.0
2019-06-08 03:20,52.8178816666667,-97.6189666666667,10.8,13.5,311,971.50,13.1,86,8.22,0.0,997.70,90.0
2019-06-08 03:30,52.8178783333333,-97.6189483333333,10.7,14.0,315,971.54,11.4,89,8.21,0.0,997.76,90.0
2019-06-08 03:40,52.81787,-97.6189633333333,9.6,12.5,312,971.65,10.6,93,8.21,0.0,997.87,90.0
2019-06-08 03:50,52.817875,-97.6189716666667,9.3,12.7,312,971.62,11.2,91,8.19,0.0,997.83,90.0
2019-06-08 04:00,52.8178766666667,-97.618975,8.1,10.4,316,971.64,11.7,90,8.17,0.0,997.86,217.6
2019-06-08 04:10,52.8178766666667,-97.6189733333333,7.2,10.2,320,971.87,12.0,89,8.17,0.0,998.07,217.6
2019-06-08 04:20,52.8179,-97.61898,7.0,10.4,337,972.08,12.5,89,8.16,0.0,998.25,217.6
2019-06-08 04:30,52.8178833333333,-97.6189683333333,5.6,7.6,353,972.51,12.9,87,8.14,0.0,998.67,217.6
2019-06-08 04:40,52.8178816666667,-97.6189633333333,4.3,6.4,18,972.72,12.9,88,8.10,0.0,998.81,217.6
2019-06-08 04:50,52.8178816666667,-97.6189616666667,4.9,6.9,15,972.85,13.8,85,8.07,0.0,998.91,217.6
2019-06-08 05:00,52.8178816666667,-97.6189616666667,4.3,6.7,19,973.09,14.4,83,8.03,0.0,999.19,360.0
2019-06-08 05:10,52.81787,-97.61895,5.0,6.5,3,973.20,14.7,82,7.99,0.0,999.30,360.0
2019-06-08 05:20,52.817905,-97.618975,5.7,7.5,337,972.94,15.3,81,8.02,0.0,999.09,360.0
2019-06-08 05:30,52.8178816666667,-97.6189733333333,5.9,8.0,326,972.90,15.2,81,8.03,0.0,999.09,360.0
2019-06-08 05:40,52.8178516666667,-97.61898,1.5,5.9,291,973.02,14.5,82,8.03,0.0,999.21,360.0
2019-06-08 05:50,52.81786,-97.6189466666667,1.9,8.3,145,973.06,12.2,89,8.03,0.0,999.35,360.0
2019-06-08 06:00,52.81786,-97.6189483333333,0.8,4.7,152,973.08,11.3,92,8.04,0.0,999.38,360.0
2019-06-08 06:10,52.81786,-97.6189533333333,1.5,4.0,128,973.21,10.6,92,8.05,0.0,999.54,360.0
2019-06-08 06:20,52.817865,-97.6189583333333,3.3,7.3,142,973.59,10.2,94,8.05,0.0,999.93,360.0
2019-06-08 06:30,52.8178883333333,-97.6189516666667,6.6,10.1,161,973.59,9.7,95,8.05,0.0,999.94,360.0
2019-06-08 06:40,52.8179033333333,-97.618955,4.9,7.0,197,973.45,8.1,99,8.07,0.0,999.83,360.0
2019-06-08 06:50,52.817905,-97.6189533333333,3.9,4.9,221,973.27,8.6,99,8.08,0.0,999.60,360.0
2019-06-08 07:00,52.8179016666667,-97.6189516666667,4.0,4.8,216,973.42,9.4,99,8.10,0.0,999.71,19.6
2019-06-08 07:10,52.8179,-97.6189533333333,3.6,4.8,234,973.45,9.6,98,8.12,0.0,999.69,19.6
2019-06-08 07:20,52.8179,-97.6189516666667,2.4,3.4,230,973.74,10.4,98,8.13,0.0,999.96,19.6
2019-06-08 07:30,52.8179,-97.6189516666667,2.1,3.1,225,973.80,10.8,98,8.14,0.0,1000.03,19.6
2019-06-08 07:40,52.8178983333333,-97.6189533333333,3.7,5.6,224,973.91,10.4,96,8.17,0.0,1000.28,19.6
2019-06-08 07:50,52.817875,-97.6189683333333,5.5,7.8,255,973.86,10.7,97,8.15,0.0,1000.25,19.6
2019-06-08 08:00,52.8178816666667,-97.61896,4.7,8.6,254,974.07,10.9,93,8.12,0.0,1000.49,90.0
2019-06-08 08:10,52.8178816666667,-97.6189566666667,4.9,6.2,254,974.40,10.6,94,8.07,0.0,1000.87,90.0
2019-06-08 08:20,52.8178783333333,-97.618955,2.8,5.4,279,974.64,11.0,94,8.04,0.0,1001.12,90.0
2019-06-08 08:30,52.8178783333333,-97.6189566666667,3.0,6.2,292,975.07,11.0,95,8.00,0.0,1001.63,90.0
2019-06-08 08:40,52.8178783333333,-97.6189583333333,1.5,7.3,284,975.06,12.0,96,7.94,0.0,1001.54,90.0
2019-06-08 08:50,52.8178783333333,-97.6189583333333,1.9,4.6,18,974.95,12.3,93,7.91,0.0,1001.38,90.0
2019-06-08 09:00,52.8178783333333,-97.6189583333333,2.6,7.5,321,975.15,11.5,96,7.87,0.0,1001.62,344.8
2019-06-08 09:10,52.8178533333333,-97.6189483333333,2.9,6.9,317,975.50,11.4,95,7.82,0.0,1001.94,344.8
2019-06-08 09:20,52.81786,-97.61895,2.0,5.1,327,975.63,11.3,96,7.79,0.0,1002.06,344.8
2019-06-08 09:30,52.817865,-97.6189516666667,2.3,5.1,330,975.37,11.3,97,7.74,0.0,1001.82,344.8
2019-06-08 09:40,52.81787,-97.618955,1.7,4.6,307,975.46,11.3,98,7.69,0.0,1001.89,344.8
2019-06-08 09:50,52.8178733333333,-97.6189566666667,2.6,6.1,323,975.33,11.9,96,7.66,0.0,1001.73,344.8
2019-06-08 10:00,52.817875,-97.6189616666667,3.4,7.2,328,975.31,12.1,94,7.64,0.0,1001.71,188.1
2019-06-08 10:10,52.8178766666667,-97.6189633333333,3.9,7.9,333,975.37,11.9,93,7.62,0.0,1001.76,188.1
2019-06-08 10:20,52.8178766666667,-97.6189816666667,4.7,8.7,335,975.47,11.7,92,7.61,0.0,1001.88,188.1
2019-06-08 10:30,52.817875,-97.61897,5.3,10.4,328,975.65,12.1,89,7.62,0.0,1001.99,188.1
2019-06-08 10:40,52.8178816666667,-97.6189716666667,4.6,9.0,321,975.92,12.4,85,7.63,0.0,1002.24,188.1
2019-06-08 10:50,52.8178816666667,-97.6189683333333,6.4,11.6,327,975.75,12.5,83,7.63,0.0,1002.10,188.1
2019-06-08 11:00,52.8178833333333,-97.6189666666667,4.9,9.9,324,975.83,11.6,87,7.73,0.0,1002.22,270.0
2019-06-08 11:10,52.817885,-97.618965,6.0,10.6,318,976.02,11.8,86,7.63,0.0,1002.42,270.0
2019-06-08 11:20,52.8158333333333,-97.61773,6.4,11.7,321,976.25,13.3,80,7.57,0.8,1002.58,270.0
2019-06-08 11:30,52.8081,-97.6139983333333,8.9,14.5,301,976.52,14.9,71,6.82,2.9,1002.79,270.0
2019-06-08 11:40,52.8048266666667,-97.60376,9.3,11.2,310,976.60,13.9,73,6.04,2.5,1002.88,270.0
2019-06-08 11:50,52.8018083333333,-97.5933233333333,8.0,9.7,297,976.62,13.3,76,5.83,2.5,1002.93,270.0
2019-06-08 12:00,52.7985733333333,-97.5827033333333,6.3,7.9,282,976.77,15.4,65,5.87,2.6,1002.99,131.3
2019-06-08 12:10,52.79572,-97.5620933333333,3.7,8.2,336,976.83,13.2,73,6.22,4.6,1003.17,131.3
2019-06-08 12:20,52.79546,-97.56183,7.5,9.9,305,976.82,10.7,89,7.39,0.1,1003.26,131.3
2019-06-08 12:30,52.795455,-97.5618316666667,12.1,14.7,309,976.71,11.0,85,7.64,0.0,1003.11,131.3
2019-06-08 12:40,52.7955,-97.5618133333333,8.5,10.8,304,977.00,10.9,84,7.74,0.0,1003.41,131.3
2019-06-08 12:50,52.7954833333333,-97.5617266666667,12.6,13.2,302,977.02,11.4,79,7.79,0.0,1003.45,131.3
2019-06-08 13:00,52.7980516666667,-97.5615916666667,8.8,18.2,294,977.31,10.4,81,7.77,0.9,1003.79,119.7
2019-06-08 13:10,52.8251916666667,-97.5399316666667,17.1,19.4,337,977.08,9.9,87,7.31,10.8,1003.50,119.7
2019-06-08 13:20,52.8526783333333,-97.5189566666667,14.5,15.9,336,977.44,8.6,93,6.52,10.9,1003.86,119.7
2019-06-08 13:30,52.8805416666667,-97.4990266666667,14.2,15.1,344,977.35,8.5,91,6.44,10.9,1003.81,119.7
2019-06-08 13:40,52.9005766666667,-97.4739033333333,10.0,14.1,359,977.72,9.0,91,6.86,9.0,1004.20,119.7
2019-06-08 13:50,52.8884716666667,-97.4360233333333,7.2,9.7,95,977.97,9.7,88,7.84,9.3,1004.33,119.7
2019-06-08 14:00,52.8876516666667,-97.433645,2.8,3.7,342,978.16,11.1,82,9.44,0.6,1004.56,58.0
2019-06-08 14:10,52.8874766666667,-97.4338133333333,2.9,3.9,343,978.22,11.4,80,9.65,0.1,1004.72,58.0
2019-06-08 14:20,52.8875216666667,-97.4338016666667,1.9,2.8,14,978.45,11.6,78,9.66,0.0,1004.94,58.0
2019-06-08 14:30,52.8874633333333,-97.43385,2.6,3.5,2,978.55,11.7,78,9.65,0.0,1005.04,58.0
2019-06-08 14:40,52.8874583333333,-97.4338616666667,3.5,4.3,337,978.66,11.6,78,9.69,0.0,1005.14,58.0
2019-06-08 14:50,52.8876316666667,-97.4336366666667,2.6,3.2,277,979.09,11.5,80,9.67,0.1,1005.62,58.0
2019-06-08 15:00,52.8876266666667,-97.4336466666667,2.3,3.1,247,979.39,11.6,79,9.65,0.0,1005.96,45.3
2019-06-08 15:10,52.887625,-97.4336816666667,2.0,3.4,230,979.46,11.5,77,9.70,0.0,1006.10,45.3
2019-06-08 15:20,52.8895233333333,-97.4401566666667,3.8,9.5,246,979.62,11.6,76,9.83,1.6,1006.26,45.3
2019-06-08 15:30,52.9006683333333,-97.47978,11.3,12.3,271,979.52,10.8,81,9.69,9.5,1006.17,45.3
2019-06-08 15:40,52.90072,-97.528185,15.1,16.5,253,979.59,9.9,82,8.11,10.5,1006.25,45.3
2019-06-08 15:50,52.8977866666667,-97.5788033333333,16.6,18.0,263,979.60,10.5,76,7.07,11.0,1006.17,45.3
2019-06-08 16:00,52.9161183333333,-97.6124766666667,16.5,19.7,302,979.67,9.9,77,6.27,9.9,1006.25,345.4
2019-06-08 16:10,52.94255,-97.6376066666667,15.6,19.2,318,979.77,10.4,75,6.52,11.0,1006.32,345.4
2019-06-08 16:20,52.9675433333333,-97.6667116666667,12.8,14.5,315,980.07,10.3,77,7.81,11.0,1006.63,345.4
2019-06-08 16:30,52.9911216666667,-97.6932383333333,12.1,14.4,302,980.19,10.3,76,8.44,10.3,1006.76,345.4
2019-06-08 16:40,52.9985283333333,-97.6932116666667,6.1,8.2,266,980.59,9.6,79,8.12,2.7,1007.21,345.4
2019-06-08 16:50,53.005,-97.69347,6.6,8.5,282,980.70,9.6,77,7.90,2.3,1007.32,345.4
2019-06-08 17:00,53.011415,-97.694895,7.6,9.6,280,980.71,9.5,78,7.53,2.3,1007.34,308.3
2019-06-08 17:10,53.0237566666667,-97.699165,9.3,13.2,297,980.72,9.1,79,7.06,4.5,1007.36,308.3
2019-06-08 17:20,53.0245316666667,-97.6994716666667,11.6,13.8,269,980.54,8.9,80,6.30,0.3,1007.23,308.3
2019-06-08 17:30,53.0245666666667,-97.6994583333333,11.6,13.1,257,980.66,8.8,80,6.06,0.0,1007.39,308.3
2019-06-08 17:40,53.024585,-97.69945,12.0,14.7,257,980.67,8.9,79,5.98,0.0,1007.37,308.3
2019-06-08 17:50,53.0243316666667,-97.7013333333333,9.5,12.6,246,980.87,8.6,81,5.86,0.4,1007.62,308.3
2019-06-08 18:00,53.0274083333333,-97.71,11.4,13.3,272,980.75,8.0,84,5.51,2.2,1007.50,310.1
2019-06-08 18:10,53.0271083333333,-97.7100366666667,12.7,20.0,277,980.85,8.2,84,5.31,0.1,1007.60,310.1
2019-06-08 18:20,53.056245,-97.6968516666667,16.8,20.1,321,981.03,7.9,85,5.20,10.9,1007.80,310.1
2019-06-08 18:30,53.0856966666667,-97.6842216666667,17.1,18.9,322,981.05,7.7,88,5.05,10.9,1007.86,310.1
2019-06-08 18:40,53.115135,-97.6717533333333,17.9,20.1,323,981.08,7.7,90,4.98,10.9,1007.89,310.1
2019-06-08 18:50,53.1443783333333,-97.6584166666667,19.2,22.4,322,981.32,7.7,92,5.18,10.9,1008.14,310.1
2019-06-08 19:00,53.1630266666667,-97.6469933333333,16.8,20.7,310,981.44,8.0,92,5.93,7.2,1008.28,355.2
2019-06-08 19:10,53.1683316666667,-97.6420866666667,15.4,18.4,293,981.54,8.1,92,6.31,2.2,1008.38,355.2
2019-06-08 19:20,53.1740216666667,-97.638995,13.6,15.9,295,981.52,8.2,93,6.53,2.2,1008.36,355.2
2019-06-08 19:30,53.1809183333333,-97.6377316666667,13.4,15.5,293,981.56,8.2,93,6.57,2.5,1008.39,355.2
2019-06-08 19:40,53.1934633333333,-97.6353683333333,12.2,15.7,300,981.73,8.2,94,6.37,4.5,1008.59,355.2
2019-06-08 19:50,53.1992866666667,-97.6334916666667,9.8,12.9,285,981.71,8.3,95,6.39,2.1,1008.59,355.2
2019-06-08 20:00,53.19919,-97.63348,8.5,10.3,267,981.91,8.1,96,6.49,0.0,1008.79,11.1
2019-06-08 20:10,53.19926,-97.6337183333333,6.3,8.1,266,981.97,8.1,96,6.52,0.1,1008.87,11.1
2019-06-08 20:20,53.195105,-97.6714466666667,14.5,18.2,258,981.66,8.0,97,6.55,8.3,1008.56,11.1
2019-06-08 20:30,53.1889733333333,-97.7199433333333,17.8,20.4,254,981.31,7.8,97,6.23,10.7,1008.22,11.1
2019-06-08 20:40,53.1810966666667,-97.7686366666667,18.3,21.2,251,981.24,8.5,92,6.14,10.9,1008.11,11.1
2019-06-08 20:50,53.1801783333333,-97.7859966666667,10.4,16.2,256,981.91,8.2,92,5.89,3.8,1008.80,11.1
2019-06-08 21:00,53.1757616666667,-97.7965983333333,11.0,12.1,241,982.06,8.5,88,5.86,2.8,1008.93,340.7
2019-06-08 21:10,53.17108,-97.8073816666667,10.8,11.8,241,982.18,8.5,86,5.81,2.9,1009.05,340.7
2019-06-08 21:20,53.16652,-97.8174866666667,11.9,13.0,240,982.18,8.5,85,5.77,2.7,1009.05,340.7
2019-06-08 21:30,53.1707366666667,-97.83723,14.3,17.6,265,982.02,8.4,84,5.77,4.5,1008.89,340.7
2019-06-08 21:40,53.1709816666667,-97.8372933333333,10.9,13.1,259,982.38,8.9,80,5.72,0.1,1009.23,340.7
2019-06-08 21:50,53.17098,-97.8372866666667,11.8,13.3,262,982.36,8.9,79,5.73,0.0,1009.22,340.7
2019-06-08 22:00,53.1709566666667,-97.8372833333333,12.5,13.6,265,982.33,9.1,77,5.73,0.0,1009.18,274.1
2019-06-08 22:10,53.1709683333333,-97.8372883333333,12.3,13.3,266,982.33,9.4,76,5.73,0.0,1009.18,274.1
2019-06-08 22:20,53.175065,-97.848125,14.5,23.6,275,982.21,9.3,76,5.72,2.8,1009.06,274.1
2019-06-08 22:30,53.1902066666667,-97.8916133333333,22.6,23.7,283,981.66,9.2,76,5.65,10.9,1008.47,274.1
2019-06-08 22:40,53.2053683333333,-97.9350666666667,21.8,22.9,282,981.74,9.2,77,5.57,10.8,1008.56,274.1
2019-06-08 22:50,53.2207066666667,-97.9785783333333,20.2,21.2,282,981.93,9.1,78,5.66,10.9,1008.75,274.1
2019-06-08 23:00,53.236175,-98.0219516666667,19.0,20.0,279,982.05,8.7,81,5.73,10.9,1008.90,279.2
2019-06-08 23:10,53.2514983333333,-98.0655,19.4,21.1,279,981.99,8.5,83,5.83,10.9,1008.84,279.2
2019-06-08 23:20,53.26698,-98.108935,20.0,21.1,280,981.90,8.6,82,5.94,10.9,1008.75,279.2
2019-06-08 23:30,53.282565,-98.1522683333333,20.4,21.6,280,981.75,8.6,82,5.89,10.9,1008.57,279.2
2019-06-08 23:40,53.2979216666667,-98.1959083333333,20.1,22.0,281,981.69,8.6,82,5.82,10.9,1008.51,279.2
